Lid_Strength_Index
1 3 4 5 9 11 14 12 11 10 10 9 8 7 8 8 8 11 4 2 0 -0 -1 -1 -1 -1 -2 -2 -1 -1 -2 -1 -2 -2 -2 -2 -2 -2 -2 -2 -2 -1 -1 -1 -1 -1 -2 -2 -2
4 2 4 8 12 15 14 12 11 10 8 8 7 8 8 8 5 5 4 2 0 -0 -1 -1 -0 -1 -2 -2 -2 -2 -2 -2 -1 -2 -2 -2 -2 -2 -2 -2 -2 -2 -1 -1 -1 -2 -2 -2 -1
2 3 8 10 13 15 14 12 10 9 8 9 9 7 7 7 5 4 2 2 -0 -0 -0 -1 -1 -2 -2 -2 -2 -1 -2 -2 -2 -2 -2 -2 -2 -2 -2 -2 -2 -1 -1 -1 -2 -2 -2 -2 -2
5 6 8 12 13 12 12 11 9 9 9 8 8 8 5 3 4 3 2 1 1 -0 -0 -0 -1 -2 -2 -2 -2 -2 -2 -2 -2 -2 -2 -2 -2 -2 -2 -2 -2 -1 -0 -0 -0 -1 -2 -2 -2
6 8 11 13 14 12 11 10 9 9 10 10 8 9 7 4 3 2 2 1 2 0 -0 -0 -1 -1 -2 -2 -2 -2 -2 -2 -2 -2 -2 -2 -2 -2 -2 -2 -2 -2 -1 -0 0 0 0 0 0
9 10 13 14 14 12 11 10 10 10 10 10 8 9 8 6 4 4 2 2 1 0 -0 -1 1 0 -1 -1 -2 -2 -2 -2 -2 -2 -2 -2 -2 -2 -2 -2 -2 -2 -2 -1 0 1 1 2 2
8 12 14 14 13 12 10 9 11 10 10 10 8 9 8 7 5 3 2 2 2 1 0 0 0 0 0 -0 -0 -1 -1 -2 -2 -2 -2 -2 -2 -2 -2 -2 -2 -2 -2 -2 -1 1 1 2 2
9 11 14 13 13 12 10 10 9 9 10 8 8 10 10 8 6 3 2 2 4 4 2 0 -0 -0 -0 0 1 0 -1 -1 -1 -1 -0 -1 -1 -1 -1 -1 -2 -2 -2 -2 -1 -0 0 1 1
9 13 14 13 13 12 10 10 9 9 9 9 8 9 8 7 6 4 5 5 6 7 8 6 -0 0 -0 0 1 1 1 1 0 1 1 1 -0 0 -0 -0 -2 -2 -2 -2 -2 -1 -0 1 1
10 13 12 12 11 12 10 10 10 10 10 10 9 8 7 7 7 6 7 7 8 10 9 8 7 1 1 0 0 -0 0 0 0 1 1 0 0 0 1 2 1 -0 -1 -2 -2 -1 -0 2 3
11 13 11 11 9 9 10 10 9 10 12 11 10 9 8 8 8 8 8 8 7 7 6 8 7 5 1 1 0 -0 0 0 -0 1 0 1 1 2 2 2 3 3 2 1 0 1 2 3 3
12 10 10 9 9 10 10 9 10 10 10 9 9 8 9 9 9 9 9 8 7 6 5 4 5 6 -0 2 3 3 3 3 3 2 -1 0 1 1 2 2 2 2 2 2 1 1 3 3 3
11 10 9 9 9 10 9 10 11 11 10 9 9 9 9 9 9 9 8 7 7 6 5 4 3 4 2 3 5 5 6 6 5 4 2 1 2 3 3 3 3 3 3 3 3 3 3 4 4
10 10 10 9 9 9 10 11 10 11 10 10 9 10 10 10 10 9 8 8 7 6 6 4 3 2 4 6 6 7 7 7 7 6 5 4 3 4 5 4 4 4 4 4 4 4 6 7 7
10 12 10 10 10 10 10 12 11 10 10 10 11 11 11 10 10 10 9 9 8 7 6 5 5 4 5 7 7 7 8 8 8 7 7 5 5 6 6 6 6 7 6 5 6 7 10 10 10
12 13 14 11 11 11 11 14 10 11 11 11 12 12 12 11 10 9 9 9 8 9 9 7 6 6 7 8 8 9 8 8 8 7 8 7 7 7 8 9 10 10 10 9 10 11 13 13 13
13 16 15 13 11 11 12 14 12 11 11 12 12 12 12 12 11 11 10 10 9 9 10 9 9 9 9 9 9 10 10 10 10 10 10 10 10 11 11 12 12 12 13 13 12 13 14 14 14
15 16 15 15 12 13 14 14 12 12 12 12 12 12 12 12 12 11 11 10 10 10 10 10 10 10 11 11 11 12 12 12 12 12 12 12 12 12 12 13 14 14 14 15 15 14 14 15 15
13 14 15 14 11 13 14 14 12 12 13 14 13 13 13 13 12 11 11 11 11 11 10 10 11 11 11 11 12 13 14 14 14 14 13 13 13 14 14 14 15 15 15 16 15 15 15 15 15
13 14 15 13 11 13 14 14 12 12 12 12 12 13 13 14 13 12 12 12 12 12 11 11 11 11 11 12 12 13 14 14 14 14 15 15 15 14 15 15 15 16 16 16 16 16 16 16 15
14 14 14 14 12 14 14 15 14 12 12 12 11 12 13 14 14 14 13 13 13 12 11 11 11 12 12 13 13 14 14 14 15 15 15 15 15 15 15 15 15 16 15 16 16 16 16 17 16
15 12 12 13 15 17 15 18 15 14 13 13 11 13 14 14 13 14 14 14 14 12 12 12 12 12 13 13 13 14 15 16 16 16 16 16 15 15 15 15 15 16 15 16 16 16 16 17 18
14 12 13 14 16 17 17 18 16 14 13 13 12 15 15 14 14 14 14 14 13 12 12 12 13 12 12 13 14 15 15 16 16 16 16 16 16 15 15 15 16 16 16 16 16 16 16 16 17
12 13 14 15 16 19 17 17 15 14 13 12 13 15 15 15 14 14 14 14 14 14 13 13 13 14 14 14 14 15 16 16 16 17 17 16 16 16 16 16 16 16 16 17 17 17 17 17 17
13 15 19 20 21 19 16 17 14 13 13 12 14 14 15 15 15 15 16 15 15 15 14 14 14 15 14 14 15 15 15 15 16 16 17 17 17 17 17 17 17 17 17 17 17 18 18 19 19
15 15 18 22 21 20 18 19 16 14 14 13 13 14 15 15 15 16 17 16 15 15 14 14 14 15 15 15 15 15 15 15 16 16 17 17 17 17 17 17 17 18 18 18 18 18 18 19 19
15 16 13 17 20 21 18 16 14 15 15 15 15 15 16 16 17 17 17 17 15 15 15 15 15 16 16 15 15 15 15 16 16 17 17 17 17 17 18 18 18 18 18 19 19 19 19 20 19
13 13 17 16 21 22 19 18 16 16 16 16 16 16 16 17 17 17 16 17 16 15 15 15 15 15 15 15 15 15 16 16 16 17 17 18 18 18 18 18 19 19 19 19 19 20 19 20 20
14 15 14 14 16 20 22 18 15 14 14 15 15 15 16 17 17 17 16 16 16 16 16 16 16 16 15 15 15 16 16 17 17 17 18 18 18 19 18 18 19 19 19 19 20 20 20 20 20
11 13 13 17 19 18 19 16 15 15 14 14 15 15 15 16 17 17 16 16 16 16 16 16 16 15 15 15 16 17 17 18 18 18 19 18 19 19 18 19 19 19 19 20 20 20 20 20 20